loading
|

STARLINK-11173, 60192

Orbit data source: Space-Track

STARLINK-11173, 60192 is a payload satellite owned by SpaceX/Seattle (US) in LEO that was launched on Wed, 03 Jul 2024 UTC via an FALCON 9 launch vehicle from the Air Force Eastern Test Range (AFETR). Payloads include a variety of satellites, spacecraft, and rockets equipped with specific instruments for various scientific and technological missions. These include communications satellites like Starlink; space stations such as the ISS; scientific satellites like the Hubble; Earth observation satellites from companies like Planet Labs, Umbra, and HawkEye 360; GPS; miniature CubeSats for education and research; and military/defense satellites.

Loading next visibility...
Next conjunction unknown
Loading greatness...
STARLINK-11173 details
Identifier
60192, 2024-124K
Orbit
LEO
Last TLE update13 hours ago
Origin
Flag of USSpaceX/Seattle (US)
ManufacturerSpaceX/Seattle
MissionOperational spacecraft
Bus & MotorSTARLINK V2M, Unknown motor
Mass750 kg wet, ~700 kg dry
Launch date (UTC)
2024-07-03 (3 months ago)
Launch vehicle
FALCON 9
Launch site
Air Force Eastern Test Range (AFETR)
Object type
Payload
Rocket body
Debris
Shape & HBRUnknown
Radar Cross SectionLarge (>1 m²)

Expand to show TLE details & history

TLE from 13 hours ago
0 STARLINK-11173
1 60192U 24124K   24288.05268324  .00102598  00000-0  84081-3 0  9994
2 60192  53.1576 163.5892 0001271  94.4771 265.6392 15.69723235 17356
Epoch: 2024-10-14T01:15Z
Definitive object data (Epoch: 2024-10-14T01:15:51.831Z)
Latitude-0.00005°
Longitude121.53784°
Altitude360.669 km
Speed7.694 km/s
True Right ascension10h 54m 21s
True Declination0° 00' 00"
Sunlit
Object was in daylight at TLE epoch
Predictive object data (real-time)
Latitude53.12246°
Longitude-157.77345°
Altitude365.06 km
Speed7.697 km/s
Apparent Right ascension18h 34m 04s
Apparent Declination9° 35' 53"
Sunlit
Object is in daylight
Predictive observer data (real-time)
Local Sidereal Time08:25:06
Azimuth33.731° NE
Elevation-34.21°
Doppler factor1
Orbital elements
Apogee360.806 km
Perigee359.094 km
Semi-major axis6,738.087 km
Eccentricity0.0001271
Inclination53.1576°
RAAN163.5892°
Arg. of periapsis94.4771°
True anomaly265.62468°
Mean anomaly265.6392°
Eccentric anomaly265.63194°
Mean motion3.92408 °/min
BSTAR0.00084081
Period91.74 mins
No data available

STARLINK-11173 Visibility forecast

Observer location: 39.9160978°, -105.1181434

Span
Click to sort rows by Start time (UTC) header in descending order
Start Az.
Max El. time (UTC)
Max El. Az.
Max El.
End time (UTC)
End Az.
4 mins2024-10-14 18:15:09.830Z202.811° SW2024-10-14 18:17:09.830Z124.553° SE35.178°2024-10-14 18:19:09.830Z65.676° ENE
4 mins2024-10-15 00:40:09.830Z344.191° N2024-10-15 00:41:09.830Z14.438° NNE26.221°2024-10-15 00:44:09.830Z97.687° ESE